This is the latest recevied weather packets stored in our database for station/object BMCB-27. If no packets are shown the sender has not sent any weather packets the latest 10 day(s).
| Time | Temp. | Humidity | Pressure | Rain* | Wind** | Luminosity | Snow |
|---|---|---|---|---|---|---|---|
| 1777849867 | 12.78° C | 93% | 1011 hPa | 0 mm | - | 0 W/m² | - |
| 1777839081 | 13.89° C | 92% | 1011 hPa | 0 mm | - | 0 W/m² | - |
| 1777837873 | 13.89° C | 91% | 1010.9 hPa | 0 mm | - | 0 W/m² | - |
| 1777818066 | 15° C | 89% | 1010.6 hPa | 0 mm | - | 374 W/m² | - |
| 1777811467 | 13.89° C | 95% | 1011.2 hPa | 0.76 mm | - | 200 W/m² | - |
| 1777803063 | 13.33° C | 95% | 1011.2 hPa | 1.78 mm | - | 116 W/m² | - |
| 1777800660 | 13.89° C | 90% | 1011.2 hPa | 0.51 mm | - | 88 W/m² | - |
| 1777779779 | 13.89° C | 84% | 1010.7 hPa | 0 mm | - | 0 W/m² | - |
| 1777773580 | 14.44° C | 84% | 1011.1 hPa | 0 mm | - | 0 W/m² | - |
| 1777768594 | 16.11° C | 79% | 1011.7 hPa | 0 mm | - | 0 W/m² | - |
| 1777767733 | 16.11° C | 78% | 1011.7 hPa | 0 mm | - | 0 W/m² | - |
| 1777762623 | 16.67° C | 76% | 1011.9 hPa | 0 mm | - | 0 W/m² | - |
| 1777744216 | 21.67° C | 59% | 1012.1 hPa | 0 mm | - | 96 W/m² | - |
| 1777741216 | 22.22° C | 55% | 1012.1 hPa | 0 mm | - | 118 W/m² | - |
| 1777740015 | 22.22° C | 55% | 1012.4 hPa | 0 mm | - | 96 W/m² | - |
| 1777738215 | 22.22° C | 52% | 1012.8 hPa | 0 mm | - | 102 W/m² | - |
| 1777737615 | 22.78° C | 52% | 1012.8 hPa | 0 mm | - | 152 W/m² | - |
| 1777736415 | 22.78° C | 51% | 1013 hPa | 0 mm | - | 186 W/m² | - |
| 1777729691 | 21.67° C | 59% | 1015 hPa | 0 mm | - | 482 W/m² | - |
| 1777722491 | 19.44° C | 67% | 1016.8 hPa | 0 mm | - | 434 W/m² | - |
| 1777717195 | 20.56° C | 62% | 1017.1 hPa | 0 mm | - | 286 W/m² | - |
| 1777713399 | 20° C | 66% | 1017.6 hPa | 8.89 mm | - | 674 W/m² | - |
| 1777710836 | 18.89° C | 68% | 1017.7 hPa | 7.37 mm | - | 562 W/m² | - |
| 1777710372 | 18.89° C | 69% | 1017.7 hPa | 7.37 mm | - | 498 W/m² | - |
| 1777709670 | 18.89° C | 68% | 1017.8 hPa | 3.3 mm | - | 456 W/m² | - |
* Rain latest hour (hover to see other rain measurements)
** Current wind speed in m/s (hover to see current wind gust speed)